Home   Weather   Bloomington   Past weeks
Flag for USA

Past Weather in Bloomington, Illinois, USA — Yesterday and Last 2 Weeks

Now
60 °F

Light rain. Overcast.


Feels Like: 60 °F
Forecast: 64 / 49 °F
Wind: 7 mph from West

Location: Bloomington / Normal

Current Time: Oct 19, 2019 at 8:13:27 pm

Latest Report: Oct 19, 2019 at 6:56 pm


Visibility: 10 mi

Pressure: 29.77 "Hg

Humidity: 62%

Dew Point: 47 °F

Location of BloomingtonLocation

Past Weather in Bloomington — Graph

°F

Bloomington Temperature Yesterday

Maximum temperature yesterday: 62 °F (at 2:56 pm)
Minimum temperature yesterday: 38 °F (at 1:56 am)
Average temperature yesterday: 49 °F

High & Low Weather Summary for the Past Weeks

 TemperatureHumidityPressure
High72 °F (Oct 9, 2:56 pm)97% (Oct 5, 2:56 am)30.31 "Hg (Oct 5, 2:56 am)
Low30 °F (Oct 12, 5:56 am)29% (Oct 13, 2:56 pm)29.71 "Hg (Oct 19, 2:56 pm)
Average53 °F69%30.03 "Hg
* Reported Oct 4 6:56 pm — Oct 19 6:56 pm, Bloomington. Weather by CustomWeather, © 2019

Note: Actual official high and low records may vary slightly from our data, if they occured in-between our weather recording intervals... More about our weather records

Advertising

Bloomington Weather History for the Previous 24 Hours

Scroll right to see more
 ConditionsComfort  
Time TempWeatherWind HumidityBarometerVisibility
6:56 pm
Sat, Oct 19
60 °FLight rain. Overcast.7 mph62%29.77 "Hg10 mi
5:56 pm63 °FMostly cloudy.6 mph50%29.75 "Hg10 mi
4:56 pm66 °FOvercast.8 mph39%29.74 "Hg10 mi
3:56 pm67 °FPassing clouds.13 mph39%29.72 "Hg10 mi
2:56 pm68 °FSunny.14 mph36%29.71 "Hg10 mi
1:56 pm69 °FSunny.13 mph39%29.73 "Hg10 mi
12:56 pm68 °FSunny.12 mph42%29.77 "Hg10 mi
11:56 am67 °FSunny.17 mph42%29.80 "Hg10 mi
10:56 am63 °FSunny.16 mph50%29.82 "Hg10 mi
9:56 am58 °FSunny.14 mph60%29.85 "Hg10 mi
8:56 am51 °FSunny.14 mph71%29.86 "Hg10 mi
7:56 am47 °FSunny.13 mph80%29.86 "Hg10 mi
6:56 am46 °FClear.12 mph79%29.87 "Hg10 mi
5:56 am47 °FClear.14 mph80%29.87 "Hg10 mi
4:56 am48 °FClear.13 mph77%29.86 "Hg10 mi
3:56 am48 °FClear.13 mph77%29.86 "Hg10 mi
2:56 am47 °FClear.16 mph77%29.86 "Hg10 mi
1:56 am47 °FClear.12 mph77%29.87 "Hg10 mi
12:56 am47 °FClear.12 mph77%29.88 "Hg10 mi
11:56 pm
Fri, Oct 18
46 °FClear.10 mph79%29.90 "Hg10 mi
10:56 pm46 °FClear.9 mph79%29.91 "Hg10 mi
9:56 pm47 °FClear.9 mph77%29.91 "Hg10 mi
8:56 pm48 °FClear.7 mph71%29.92 "Hg10 mi
Weather by CustomWeather, © 2019

See weather overview